N1MJL-13 Weather Reports


Display with metric or nautical units.
time (UTC)temp
F
wind
direction
speed
MPH
gust
MPH
rain 1hr
in
rain 24hr
in
rain mn
in
humidity
%
barometer
mb
20200219224516 33 248 1.0 2.0 0.00 0.25 0.02 46 1022.1
20200219223445 33 252 0.0 2.0 0.00 0.25 0.02 46 1022.0
20200219222415 34 309 3.0 5.0 0.00 0.26 0.02 40 1021.8
20200219221345 34 21 3.0 6.0 0.00 0.27 0.02 39 1021.7
20200219220315 35 217 5.0 7.0 0.00 0.28 0.02 38 1021.6
20200219215245 35 258 1.0 2.0 0.00 0.29 0.02 40 1021.4
20200219214215 35 242 1.0 5.0 0.00 0.30 0.02 37 1021.3
20200219213145 35 121 1.0 3.0 0.00 0.30 0.02 45 1021.0
20200219212115 36 248 5.0 8.0 0.00 0.30 0.02 39 1020.9
20200219211045 36 158 2.0 4.0 0.00 0.30 0.02 41 1020.9
20200219210018 37 242 4.0 6.0 0.00 0.31 0.02 37 1020.8
20200219204945 37 245 3.0 8.0 0.00 0.32 0.02 38 1020.6
20200219203918 37 198 2.0 7.0 0.00 0.33 0.02 40 1020.3
20200219202847 38 182 1.0 3.0 0.00 0.33 0.02 41 1020.2
20200219201815 38 247 5.0 9.0 0.00 0.33 0.02 37 1020.2
20200219200745 39 260 1.0 7.0 0.00 0.33 0.02 38 1020.0
20200219195715 39 310 1.0 6.0 0.00 0.33 0.02 38 1019.8
20200219194645 38 244 2.0 7.0 0.00 0.33 0.02 38 1019.8
20200219193615 38 255 4.0 7.0 0.00 0.33 0.02 37 1019.4
20200219192545 38 235 3.0 6.0 0.00 0.33 0.02 39 1019.4
20200219191517 39 234 2.0 8.0 0.00 0.33 0.02 39 1019.2
20200219190447 38 243 2.0 7.0 0.00 0.33 0.02 40 1019.2
20200219185416 39 209 3.0 7.0 0.00 0.33 0.02 42 1019.0
20200219184347 39 248 5.0 9.0 0.00 0.33 0.02 44 1018.8
20200219183317 39 261 4.0 9.0 0.00 0.33 0.02 45 1018.7
20200219182247 39 262 5.0 10.0 0.00 0.33 0.02 48 1018.9
20200219181217 39 230 3.0 7.0 0.00 0.33 0.02 47 1018.8
20200219180147 39 243 2.0 5.0 0.00 0.33 0.02 49 1018.9
20200219175118 39 229 5.0 8.0 0.00 0.33 0.02 50 1018.8
20200219174047 40 245 4.0 11.0 0.00 0.33 0.02 51 1018.6
20200219173017 40 245 3.0 10.0 0.00 0.33 0.02 47 1018.6
20200219171946 39 218 3.0 6.0 0.00 0.33 0.02 49 1018.6
20200219170916 38 219 2.0 5.0 0.00 0.33 0.02 50 1018.5
20200219165847 39 254 7.0 9.0 0.00 0.33 0.02 48 1018.5
20200219164816 39 249 5.0 9.0 0.00 0.33 0.02 55 1018.3
20200219163747 38 97 2.0 5.0 0.00 0.33 0.02 56 1018.3
20200219162716 39 230 1.0 6.0 0.00 0.33 0.02 57 1018.4
20200219161646 40 218 3.0 8.0 0.00 0.33 0.02 53 1018.4
20200219160619 40 239 4.0 10.0 0.00 0.33 0.02 55 1018.4
20200219155546 39 167 5.0 8.0 0.00 0.33 0.02 56 1018.2
20200219154516 39 252 2.0 5.0 0.00 0.33 0.02 56 1018.2
20200219153446 40 244 5.0 8.0 0.00 0.33 0.02 55 1018.2
20200219152416 39 200 1.0 5.0 0.00 0.33 0.02 61 1018.2
20200219151346 39 242 5.0 9.0 0.00 0.33 0.02 62 1018.2
20200219150316 39 264 4.0 14.0 0.00 0.33 0.02 63 1018.0
20200219145247 39 259 2.0 5.0 0.00 0.33 0.02 66 1017.9
20200219144216 38 250 2.0 6.0 0.00 0.33 0.01 70 1017.9
20200219143146 37 265 6.0 19.0 0.00 0.33 0.01 72 1017.9
20200219142120 37 238 4.0 7.0 0.00 0.33 0.01 74 1017.9
20200219141047 37 233 1.0 5.0 0.00 0.33 0.01 77 1017.8
20200219140016 37 263 1.0 2.0 0.00 0.33 0.01 78 1017.6
20200219134946 36 262 2.0 4.0 0.00 0.33 0.01 79 1017.6
20200219133916 36 263 0.0 3.0 0.00 0.33 0.01 80 1017.5
20200219132846 36 254 1.0 5.0 0.00 0.33 0.01 82 1017.4
20200219131816 35 0.0 0.0 0.00 0.33 0.01 87 1017.3
20200219130746 34 228 1.0 2.0 0.00 0.33 0.01 90 1017.2
20200219125716 32 0.0 0.0 0.00 0.33 0.01 94 1017.1
20200219124646 32 0.0 0.0 0.00 0.33 0.01 94 1016.9
20200219123616 32 0.0 0.0 0.00 0.33 0.01 94 1016.7
20200219122546 32 0.0 0.0 0.00 0.33 0.01 93 1016.8
20200219121516 33 0.0 0.0 0.00 0.33 0.01 93 1016.6
20200219120450 33 0.0 0.0 0.00 0.33 0.01 93 1016.5
20200219115416 33 0.0 0.0 0.00 0.33 0.01 94 1016.3
20200219114346 33 0.0 0.0 0.00 0.33 0.01 94 1016.0
20200219113316 33 0.0 1.0 0.00 0.33 0.01 94 1015.9
20200219112246 33 0.0 0.0 0.00 0.33 0.01 95 1015.8
20200219111217 33 0.0 0.0 0.00 0.33 0.01 95 1015.6
20200219110146 33 0.0 0.0 0.00 0.33 0.01 95 1015.5
20200219105116 33 0.0 0.0 0.01 0.33 0.01 96 1015.5
20200219104045 33 290 0.0 1.0 0.01 0.33 0.01 96 1015.1
20200219103016 34 0.0 0.0 0.01 0.33 0.01 96 1015.3
20200219101945 34 0.0 0.0 0.01 0.33 0.01 96 1015.0
20200219100916 34 0.0 0.0 0.01 0.33 0.01 96 1014.6
20200219095846 34 0.0 0.0 0.01 0.33 0.01 97 1014.7
20200219094815 34 0.0 0.0 0.00 0.32 0.00 97 1014.8
20200219093745 34 0.0 0.0 0.00 0.32 0.00 97 1014.4
20200219092716 34 245 0.0 2.0 0.00 0.32 0.00 97 1014.1
20200219091645 34 0.0 0.0 0.00 0.32 0.00 97 1014.3
20200219090616 34 0.0 0.0 0.00 0.32 0.00 97 1013.9
20200219085545 34 0.0 0.0 0.00 0.32 0.00 97 1014.1
20200219084516 34 0.0 0.0 0.00 0.32 0.00 97 1014.0
20200219083445 34 0.0 0.0 0.00 0.32 0.00 97 1013.9
20200219082415 34 0.0 0.0 0.00 0.32 0.00 97 1013.6
20200219081346 34 0.0 0.0 0.00 0.32 0.00 97 1013.6
20200219080315 34 0.0 0.0 0.00 0.32 0.00 97 1013.4
20200219075245 34 0.0 0.0 0.00 0.32 0.00 97 1013.5
20200219074216 34 0.0 0.0 0.00 0.32 0.00 97 1013.3
20200219073145 33 0.0 0.0 0.00 0.32 0.00 97 1012.8
20200219072115 33 0.0 0.0 0.00 0.32 0.00 97 1012.7
20200219071045 33 0.0 0.0 0.00 0.32 0.00 97 1012.6
20200219070015 33 0.0 0.0 0.00 0.32 0.00 97 1013.0
20200219064946 33 0.0 0.0 0.00 0.32 0.00 97 1013.0
20200219063915 33 0.0 0.0 0.00 0.32 0.00 97 1013.1
20200219062845 33 0.0 0.0 0.00 0.32 0.00 97 1012.7
20200219061815 33 0.0 0.0 0.00 0.32 0.00 97 1012.7
20200219060745 33 0.0 0.0 0.00 0.32 0.00 97 1012.4
20200219055715 32 0.0 0.0 0.00 0.32 0.00 97 1012.5
20200219054645 32 0.0 0.0 0.00 0.32 0.00 97 1012.8
20200219053615 32 0.0 0.0 0.00 0.32 0.00 97 1012.8
20200219052550 32 0.0 0.0 0.00 0.32 0.00 97 1012.6
20200219051515 32 0.0 0.0 0.00 0.32 0.00 97 1012.5
20200219050445 32 0.0 0.0 0.00 0.32 0.00 97 1012.3
20200219045416 32 0.0 0.0 0.00 0.32 0.45 96 1012.7
20200219044346 32 0.0 0.0 0.00 0.32 0.45 96 1012.9
20200219043316 32 0.0 0.0 0.00 0.32 0.44 96 1013.1
20200219042246 32 0.0 0.0 0.00 0.32 0.44 96 1013.0
20200219041216 32 0.0 0.0 0.00 0.32 0.44 96 1012.9
20200219040146 32 0.0 0.0 0.00 0.32 0.44 96 1013.0
20200219035116 32 0.0 0.0 0.00 0.32 0.44 96 1013.1
20200219034046 33 0.0 0.0 0.00 0.32 0.44 97 1013.0
20200219033016 33 0.0 0.0 0.00 0.32 0.44 97 1013.0
20200219031946 33 0.0 0.0 0.00 0.32 0.44 96 1013.1
20200219030916 33 0.0 0.0 0.00 0.32 0.44 96 1013.4
20200219025846 33 0.0 0.0 0.01 0.32 0.44 96 1013.5
20200219024816 33 0.0 0.0 0.01 0.32 0.44 96 1013.6
20200219023746 33 0.0 0.0 0.02 0.32 0.44 96 1013.9
20200219022716 33 0.0 0.0 0.02 0.32 0.43 96 1014.2
20200219021706 33 0.0 0.0 0.04 0.32 0.43 96 1014.3
20200219020620 33 0.0 0.0 0.04 0.32 0.43 96 1014.5
20200219015546 33 0.0 0.0 0.04 0.31 0.42 96 1014.8
20200219014516 33 0.0 0.0 0.05 0.31 0.42 96 1015.0
20200219013446 33 0.0 0.0 0.05 0.30 0.41 96 1015.0
20200219012416 33 0.0 0.0 0.06 0.29 0.40 96 1015.2
20200219011347 33 0.0 0.0 0.07 0.28 0.39 96 1015.3
20200219010316 33 0.0 0.0 0.10 0.28 0.39 96 1015.4
20200219005246 33 0.0 0.0 0.12 0.27 0.38 96 1015.4
20200219004216 33 0.0 0.0 0.11 0.25 0.36 96 1015.9
20200219003146 33 0.0 0.0 0.11 0.24 0.35 96 1016.4
20200219002116 33 0.0 0.0 0.11 0.23 0.34 96 1016.8
20200219001046 33 0.0 0.0 0.09 0.20 0.31 96 1016.8
20200219000016 33 0.0 0.0 0.07 0.17 0.28 96 1017.0
20200218234945 33 0.0 0.0 0.07 0.15 0.25 96 1017.4
20200218233936 33 0.0 0.0 0.06 0.14 0.23 96 1017.4
20200218232847 33 0.0 0.0 0.05 0.13 0.21 96 1017.5
20200218231815 33 0.0 0.0 0.06 0.12 0.19 95 1017.7
20200218230746 33 0.0 0.0 0.06 0.11 0.18 95 1017.8
20200218225735 33 0.0 0.0 0.05 0.09 0.16 95 1018.1